KLM467 CYQX-EINN

Flight info

Callsign KLM467
Flight time 5h 19m
Altitude 33000
Route YQX DCT ELSIR DCT 50N050W/M080F330 51N040W 52N030W 52N020W DCT LIMRI/N0466F330 DCT XETBO DCT LUPOR LUPOR2E
Aircraft B739/M-SDE2E3FGHIRWXY/LB1

Departure

Time 2026-04-30 13:26
Airport Gander International Airport (CYQX)

Arrival

Time 2026-04-30 18:45
Airport Shannon Airport (EINN)
Time Latitude Longitude Altitude Speed Heading
2026-04-30 13:15 48.94677 -54.57214 453 ft 0 kts 195°
2026-04-30 13:20 48.94684 -54.57211 451 ft 4 kts 195°
2026-04-30 13:20 48.94709 -54.57200 454 ft 4 kts 195°
2026-04-30 13:20 48.94734 -54.57192 454 ft 4 kts 160°
2026-04-30 13:21 48.94742 -54.57206 454 ft 4 kts 108°
2026-04-30 13:21 48.94749 -54.57236 451 ft 0 kts 108°
2026-04-30 13:23 48.94734 -54.57167 453 ft 17 kts 108°
2026-04-30 13:23 48.94860 -54.56936 453 ft 17 kts 18°
2026-04-30 13:24 48.94915 -54.56673 448 ft 18 kts 108°
2026-04-30 13:24 48.94823 -54.56240 439 ft 25 kts 108°
2026-04-30 13:25 48.94482 -54.56091 447 ft 65 kts 190°
2026-04-30 13:25 48.92798 -54.56597 541 ft 168 kts 191°
2026-04-30 13:26 48.89258 -54.55259 1883 ft 229 kts 113°
2026-04-30 13:26 48.89901 -54.50328 3157 ft 258 kts 67°
2026-04-30 13:27 48.91504 -54.45403 4720 ft 262 kts 68°
2026-04-30 13:28 48.93736 -54.37732 6924 ft 268 kts 70°
2026-04-30 13:28 48.95159 -54.32403 8248 ft 275 kts 71°
2026-04-30 13:28 48.95864 -54.29683 8929 ft 278 kts 72°
2026-04-30 13:29 48.97280 -54.24115 10242 ft 285 kts 71°
2026-04-30 13:29 48.98763 -54.18175 10691 ft 322 kts 71°
2026-04-30 13:30 49.01339 -54.07753 11122 ft 377 kts 72°
2026-04-30 13:31 49.03231 -54.00050 11820 ft 394 kts 71°
2026-04-30 13:31 49.06137 -53.88161 13335 ft 404 kts 71°
2026-04-30 13:32 49.08095 -53.80104 14297 ft 410 kts 70°
2026-04-30 13:32 49.10086 -53.71879 15173 ft 416 kts 71°
2026-04-30 13:33 49.12102 -53.63519 16031 ft 422 kts 71°
2026-04-30 13:33 49.14139 -53.55040 16847 ft 428 kts 71°
2026-04-30 13:34 49.15164 -53.50758 17244 ft 431 kts 70°
2026-04-30 13:34 49.18269 -53.37742 18369 ft 439 kts 72°
2026-04-30 13:35 49.19314 -53.33339 18701 ft 442 kts 71°
2026-04-30 13:35 49.21419 -53.24455 19355 ft 446 kts 71°
2026-04-30 13:36 49.23534 -53.15489 20012 ft 449 kts 71°
2026-04-30 13:36 49.24595 -53.10978 20339 ft 451 kts 71°
2026-04-30 13:36 49.26725 -53.01890 21019 ft 455 kts 71°
2026-04-30 13:37 49.27794 -52.97317 21336 ft 457 kts 71°
2026-04-30 13:37 49.29938 -52.88116 21938 ft 461 kts 71°
2026-04-30 13:38 49.32096 -52.78810 22522 ft 465 kts 71°
2026-04-30 13:38 49.33163 -52.74193 22804 ft 467 kts 71°
2026-04-30 13:38 49.35333 -52.64776 23364 ft 470 kts 71°
2026-04-30 13:39 49.37513 -52.55273 23899 ft 474 kts 72°
2026-04-30 13:39 49.39699 -52.45698 24360 ft 477 kts 72°
2026-04-30 13:40 49.40798 -52.40872 24575 ft 479 kts 72°
2026-04-30 13:40 49.41896 -52.36036 24812 ft 480 kts 72°
2026-04-30 13:40 49.42995 -52.31185 25045 ft 481 kts 72°
2026-04-30 13:40 49.44094 -52.26325 25273 ft 483 kts 72°
2026-04-30 13:41 49.45199 -52.21426 25524 ft 484 kts 72°
2026-04-30 13:41 49.46296 -52.16549 25851 ft 483 kts 72°
2026-04-30 13:41 49.47389 -52.11682 26218 ft 481 kts 72°
2026-04-30 13:41 49.48477 -52.06826 26592 ft 479 kts 72°
2026-04-30 13:42 49.49560 -52.01981 26936 ft 479 kts 72°
2026-04-30 13:42 49.50657 -51.97145 27251 ft 479 kts 71°
2026-04-30 13:42 49.53102 -51.87625 27960 ft 477 kts 69°
2026-04-30 13:43 49.54365 -51.82920 28405 ft 474 kts 69°
2026-04-30 13:43 49.55600 -51.78299 28851 ft 471 kts 69°
2026-04-30 13:43 49.56834 -51.73630 29203 ft 471 kts 69°
2026-04-30 13:43 49.58055 -51.68956 29517 ft 471 kts 69°
2026-04-30 13:44 49.59271 -51.64256 29875 ft 470 kts 69°
2026-04-30 13:44 49.60474 -51.59581 30267 ft 469 kts 69°
2026-04-30 13:44 49.61670 -51.54915 30631 ft 467 kts 70°
2026-04-30 13:44 49.62864 -51.50244 30912 ft 467 kts 69°
2026-04-30 13:45 49.65240 -51.40916 31395 ft 467 kts 70°
2026-04-30 13:45 49.66423 -51.36264 31675 ft 466 kts 70°
2026-04-30 13:45 49.67605 -51.31604 31960 ft 465 kts 70°
2026-04-30 13:46 49.68781 -51.26959 32212 ft 465 kts 70°
2026-04-30 13:46 49.69958 -51.22302 32449 ft 465 kts 70°
2026-04-30 13:46 49.71135 -51.17637 32692 ft 465 kts 70°
2026-04-30 13:46 49.72304 -51.12990 32950 ft 464 kts 70°
2026-04-30 13:47 49.73471 -51.08345 33243 ft 462 kts 70°
2026-04-30 13:47 49.74633 -51.03709 33482 ft 462 kts 71°
2026-04-30 13:47 49.75795 -50.99063 33673 ft 463 kts 71°
2026-04-30 13:47 49.76953 -50.94423 33883 ft 463 kts 71°
2026-04-30 13:48 49.78095 -50.89836 34112 ft 462 kts 71°
2026-04-30 13:48 49.79246 -50.85207 34388 ft 460 kts 71°
2026-04-30 13:48 49.80388 -50.80607 34696 ft 456 kts 71°
2026-04-30 13:48 49.81523 -50.76023 34892 ft 456 kts 71°
2026-04-30 13:49 49.82658 -50.71425 34997 ft 457 kts 71°
2026-04-30 13:49 49.83791 -50.66830 35178 ft 456 kts 71°
2026-04-30 13:49 49.84917 -50.62254 35408 ft 454 kts 71°
2026-04-30 13:50 49.86791 -50.54613 35413 ft 457 kts 71°
2026-04-30 13:50 49.90156 -50.40831 35413 ft 454 kts 71°
2026-04-30 13:51 49.92380 -50.31675 35417 ft 453 kts 71°
2026-04-30 13:51 49.94590 -50.22535 35420 ft 451 kts 71°
2026-04-30 13:52 49.96790 -50.13400 35422 ft 451 kts 71°
2026-04-30 13:52 49.98980 -50.04274 35425 ft 451 kts 71°
2026-04-30 13:53 50.00880 -49.95049 35430 ft 450 kts 78°
2026-04-30 13:53 50.02225 -49.85551 35425 ft 450 kts 80°
2026-04-30 13:54 50.03516 -49.75996 35428 ft 451 kts 80°
2026-04-30 13:54 50.04843 -49.66432 35430 ft 452 kts 79°
2026-04-30 13:55 50.06195 -49.56854 35429 ft 453 kts 79°
2026-04-30 13:55 50.07542 -49.47324 35428 ft 453 kts 79°
2026-04-30 13:56 50.08887 -49.37753 35428 ft 453 kts 79°
2026-04-30 13:56 50.10225 -49.28158 35431 ft 453 kts 79°
2026-04-30 13:57 50.11553 -49.18576 35430 ft 452 kts 79°
2026-04-30 13:57 50.12871 -49.08999 35444 ft 451 kts 79°
2026-04-30 13:58 50.14824 -48.94691 35431 ft 449 kts 79°
2026-04-30 13:59 50.16103 -48.85239 35434 ft 447 kts 79°
2026-04-30 13:59 50.17379 -48.75751 35439 ft 446 kts 80°
2026-04-30 14:00 50.18651 -48.66232 35437 ft 445 kts 80°
2026-04-30 14:00 50.20522 -48.52108 35444 ft 445 kts 80°
2026-04-30 14:01 50.21767 -48.42633 35442 ft 446 kts 80°
2026-04-30 14:01 50.23008 -48.33125 35445 ft 447 kts 80°
2026-04-30 14:02 50.24242 -48.23601 35448 ft 447 kts 80°
2026-04-30 14:02 50.25470 -48.14065 35438 ft 448 kts 80°
2026-04-30 14:03 50.26690 -48.04526 35444 ft 448 kts 80°
2026-04-30 14:03 50.27897 -47.95018 35442 ft 448 kts 80°
2026-04-30 14:04 50.29101 -47.85473 35448 ft 447 kts 81°
2026-04-30 14:04 50.30297 -47.75920 35450 ft 447 kts 81°
2026-04-30 14:05 50.31485 -47.66372 35449 ft 447 kts 81°
2026-04-30 14:05 50.32663 -47.56830 35446 ft 447 kts 81°
2026-04-30 14:06 50.34414 -47.42518 35458 ft 446 kts 81°
2026-04-30 14:07 50.36145 -47.28212 35453 ft 445 kts 81°
2026-04-30 14:08 50.37855 -47.13930 35451 ft 444 kts 81°
2026-04-30 14:08 50.39539 -46.99714 35456 ft 443 kts 81°
2026-04-30 14:09 50.40653 -46.90221 35453 ft 443 kts 81°
2026-04-30 14:10 50.42311 -46.75959 35455 ft 443 kts 81°
2026-04-30 14:10 50.43405 -46.66459 35460 ft 443 kts 81°
2026-04-30 14:11 50.44492 -46.56943 35453 ft 443 kts 81°
2026-04-30 14:11 50.45569 -46.47449 35455 ft 442 kts 81°
2026-04-30 14:12 50.46641 -46.37932 35453 ft 441 kts 81°
2026-04-30 14:12 50.47699 -46.28457 35456 ft 441 kts 81°
2026-04-30 14:13 50.48743 -46.19039 35458 ft 440 kts 81°
2026-04-30 14:13 50.49785 -46.09560 35456 ft 440 kts 81°
2026-04-30 14:14 50.50820 -46.00078 35451 ft 440 kts 81°
2026-04-30 14:14 50.51846 -45.90600 35457 ft 440 kts 81°
2026-04-30 14:15 50.52864 -45.81128 35465 ft 440 kts 81°
2026-04-30 14:15 50.53874 -45.71646 35457 ft 439 kts 81°
2026-04-30 14:16 50.54875 -45.62178 35457 ft 439 kts 81°
2026-04-30 14:16 50.55867 -45.52716 35455 ft 438 kts 81°
2026-04-30 14:17 50.56849 -45.43265 35458 ft 438 kts 81°
2026-04-30 14:17 50.57818 -45.33874 35459 ft 437 kts 81°
2026-04-30 14:18 50.58789 -45.24377 35456 ft 437 kts 81°
2026-04-30 14:18 50.60218 -45.10265 35461 ft 437 kts 82°
2026-04-30 14:19 50.61636 -44.96079 35457 ft 437 kts 81°
2026-04-30 14:20 50.62571 -44.86618 35454 ft 437 kts 82°
2026-04-30 14:20 50.63958 -44.72446 35455 ft 435 kts 82°
2026-04-30 14:21 50.64869 -44.63024 35455 ft 435 kts 82°
2026-04-30 14:22 50.66215 -44.48960 35461 ft 434 kts 82°
2026-04-30 14:22 50.67552 -44.34812 35452 ft 434 kts 82°
2026-04-30 14:23 50.69298 -44.16032 35463 ft 435 kts 82°
2026-04-30 14:24 50.70594 -44.01872 35457 ft 435 kts 82°
2026-04-30 14:25 50.72293 -43.83001 35448 ft 433 kts 82°
2026-04-30 14:26 50.73543 -43.68894 35457 ft 433 kts 82°
2026-04-30 14:27 50.74776 -43.54772 35454 ft 432 kts 83°
2026-04-30 14:27 50.75589 -43.45352 35456 ft 432 kts 83°
2026-04-30 14:28 50.76792 -43.31233 35452 ft 432 kts 83°
2026-04-30 14:28 50.77584 -43.21831 35447 ft 431 kts 83°
2026-04-30 14:29 50.79008 -43.04677 35450 ft 430 kts 83°
2026-04-30 14:31 50.81036 -42.79687 35456 ft 429 kts 83°
2026-04-30 14:31 50.82153 -42.65633 35452 ft 430 kts 83°
2026-04-30 14:32 50.83254 -42.51545 35462 ft 430 kts 83°
2026-04-30 14:33 50.83976 -42.42199 35448 ft 430 kts 83°
2026-04-30 14:33 50.85050 -42.28087 35450 ft 429 kts 83°
2026-04-30 14:34 50.85754 -42.18720 35437 ft 428 kts 83°
2026-04-30 14:34 50.86449 -42.09364 35448 ft 428 kts 84°
2026-04-30 14:35 50.87477 -41.95320 35448 ft 428 kts 84°
2026-04-30 14:36 50.88153 -41.85959 35448 ft 428 kts 84°
2026-04-30 14:36 50.88818 -41.76646 35449 ft 428 kts 84°
2026-04-30 14:37 50.89481 -41.67254 35449 ft 429 kts 84°
2026-04-30 14:37 50.90137 -41.57857 35445 ft 430 kts 84°
2026-04-30 14:38 50.90787 -41.48425 35447 ft 430 kts 84°
2026-04-30 14:38 50.91321 -41.40599 35448 ft 430 kts 84°
2026-04-30 14:39 50.91958 -41.31155 35450 ft 431 kts 84°
2026-04-30 14:39 50.92586 -41.21721 35447 ft 431 kts 84°
2026-04-30 14:40 50.93516 -41.07549 35442 ft 430 kts 84°
2026-04-30 14:40 50.94125 -40.98101 35445 ft 430 kts 84°
2026-04-30 14:41 50.94726 -40.88679 35464 ft 430 kts 84°
2026-04-30 14:41 50.95314 -40.79325 35452 ft 429 kts 84°
2026-04-30 14:42 50.95899 -40.69905 35443 ft 428 kts 85°
2026-04-30 14:42 50.96475 -40.60506 35444 ft 427 kts 85°
2026-04-30 14:43 50.97043 -40.51121 35439 ft 426 kts 85°
2026-04-30 14:43 50.97601 -40.41760 35448 ft 426 kts 85°
2026-04-30 14:44 50.98148 -40.32458 35448 ft 426 kts 85°
2026-04-30 14:44 50.98696 -40.23028 35449 ft 426 kts 85°
2026-04-30 14:45 50.99229 -40.13714 35450 ft 427 kts 85°
2026-04-30 14:45 50.99762 -40.04284 35449 ft 428 kts 85°
2026-04-30 14:46 51.00608 -39.94928 35448 ft 428 kts 78°
2026-04-30 14:46 51.01971 -39.85716 35443 ft 429 kts 77°
2026-04-30 14:47 51.03351 -39.76551 35444 ft 428 kts 77°
2026-04-30 14:47 51.04697 -39.67334 35444 ft 428 kts 78°
2026-04-30 14:48 51.06015 -39.58106 35447 ft 428 kts 78°
2026-04-30 14:48 51.07317 -39.48878 35449 ft 427 kts 78°
2026-04-30 14:49 51.08610 -39.39656 35445 ft 427 kts 78°
2026-04-30 14:49 51.09896 -39.30427 35449 ft 427 kts 78°
2026-04-30 14:50 51.11813 -39.16567 35447 ft 427 kts 78°
2026-04-30 14:51 51.13708 -39.02735 35445 ft 428 kts 78°
2026-04-30 14:52 51.15596 -38.88828 35460 ft 428 kts 78°
2026-04-30 14:52 51.17470 -38.74888 35447 ft 429 kts 78°
2026-04-30 14:53 51.19319 -38.61000 35445 ft 428 kts 79°
2026-04-30 14:54 51.21762 -38.42442 35441 ft 427 kts 79°
2026-04-30 14:55 51.23572 -38.28534 35443 ft 426 kts 79°
2026-04-30 14:56 51.25956 -38.10002 35446 ft 426 kts 79°
2026-04-30 14:57 51.27728 -37.96067 35436 ft 427 kts 79°
2026-04-30 14:58 51.30068 -37.77438 35448 ft 428 kts 79°
2026-04-30 14:58 51.31804 -37.63454 35446 ft 429 kts 79°
2026-04-30 15:00 51.34670 -37.40045 35440 ft 429 kts 79°
2026-04-30 15:01 51.36930 -37.21286 35445 ft 428 kts 79°
2026-04-30 15:01 51.38601 -37.07250 35443 ft 428 kts 79°
2026-04-30 15:02 51.39696 -36.97962 35441 ft 427 kts 79°
2026-04-30 15:03 51.42422 -36.74552 35443 ft 428 kts 79°
2026-04-30 15:04 51.45111 -36.51030 35444 ft 430 kts 80°
2026-04-30 15:06 51.47747 -36.27526 35444 ft 429 kts 80°
2026-04-30 15:07 51.49826 -36.08672 35442 ft 428 kts 80°
2026-04-30 15:08 51.51871 -35.89837 35435 ft 428 kts 80°
2026-04-30 15:09 51.54381 -35.66299 35439 ft 428 kts 80°
2026-04-30 15:10 51.56353 -35.47477 35440 ft 428 kts 80°
2026-04-30 15:11 51.59268 -35.19070 35440 ft 430 kts 80°
2026-04-30 15:13 51.61650 -34.95321 35434 ft 430 kts 81°
2026-04-30 15:14 51.64896 -34.62112 35438 ft 430 kts 81°
2026-04-30 15:17 51.68945 -34.19207 35446 ft 431 kts 81°
2026-04-30 15:19 51.72416 -33.80967 35427 ft 432 kts 81°
2026-04-30 17:39 53.63286 -6.80000 35094 ft 412 kts 59°
2026-04-30 17:42 53.79992 -6.40778 35104 ft 412 kts 59°
2026-04-30 17:43 53.88360 -6.21140 35101 ft 413 kts 59°
2026-04-30 17:44 53.97914 -5.98686 35112 ft 416 kts 59°
2026-04-30 17:47 54.13193 -5.62621 35120 ft 418 kts 59°
2026-04-30 17:48 54.25009 -5.34457 35120 ft 416 kts 59°
2026-04-30 17:50 54.38351 -5.02162 35135 ft 414 kts 59°
2026-04-30 17:52 54.48312 -4.77888 35139 ft 414 kts 58°
2026-04-30 17:54 54.63028 -4.41043 35164 ft 415 kts 59°
2026-04-30 17:56 54.76090 -4.08251 35164 ft 414 kts 59°
2026-04-30 17:57 54.81446 -3.96544 35165 ft 420 kts 36°
2026-04-30 17:58 54.89901 -3.94434 35177 ft 429 kts 338°
2026-04-30 17:59 54.96308 -4.10107 35178 ft 414 kts 262°
2026-04-30 18:00 54.91537 -4.27702 35177 ft 413 kts 232°
2026-04-30 18:00 54.86580 -4.40295 35177 ft 428 kts 232°
2026-04-30 18:01 54.83197 -4.48866 35175 ft 437 kts 232°
2026-04-30 18:02 54.72714 -4.75274 35156 ft 444 kts 232°
2026-04-30 18:04 54.61558 -5.00630 35134 ft 439 kts 229°
2026-04-30 18:06 54.48732 -5.36460 35137 ft 438 kts 235°
2026-04-30 18:08 54.37643 -5.67717 35139 ft 439 kts 234°
2026-04-30 18:10 54.24771 -6.03500 35107 ft 442 kts 234°
2026-04-30 18:11 54.13393 -6.34710 35113 ft 443 kts 234°
2026-04-30 18:13 54.05176 -6.57006 35110 ft 445 kts 233°
2026-04-30 18:14 53.96900 -6.79260 35101 ft 446 kts 233°
2026-04-30 18:15 53.86898 -7.05897 35102 ft 447 kts 233°
2026-04-30 18:16 53.80183 -7.23622 35096 ft 447 kts 233°
2026-04-30 18:17 53.76820 -7.32449 35118 ft 446 kts 233°
2026-04-30 18:18 53.71765 -7.45662 35095 ft 446 kts 233°
2026-04-30 18:18 53.68394 -7.54436 35091 ft 445 kts 233°
2026-04-30 18:19 53.65018 -7.63192 35100 ft 444 kts 233°
2026-04-30 18:19 53.61642 -7.71914 35085 ft 445 kts 233°
2026-04-30 18:20 53.58281 -7.80569 35106 ft 444 kts 232°
2026-04-30 18:20 53.54876 -7.89309 35088 ft 444 kts 232°
2026-04-30 18:21 53.51486 -7.97980 35082 ft 443 kts 232°
2026-04-30 18:21 53.48101 -8.06608 35093 ft 442 kts 232°
2026-04-30 18:22 53.44702 -8.15238 34922 ft 445 kts 232°
2026-04-30 18:22 53.41271 -8.23919 33466 ft 449 kts 232°
2026-04-30 18:22 53.39535 -8.28302 32573 ft 451 kts 231°
2026-04-30 18:23 53.37797 -8.32683 31629 ft 453 kts 231°
2026-04-30 18:23 53.36051 -8.37075 30737 ft 454 kts 231°
2026-04-30 18:23 53.34294 -8.41488 29765 ft 456 kts 230°
2026-04-30 18:23 53.32527 -8.45917 28698 ft 457 kts 230°
2026-04-30 18:24 53.28987 -8.54769 26668 ft 459 kts 231°
2026-04-30 18:24 53.27207 -8.59206 25724 ft 461 kts 231°
2026-04-30 18:24 53.25432 -8.63629 25003 ft 458 kts 231°
2026-04-30 18:25 53.23655 -8.68049 24257 ft 458 kts 231°
2026-04-30 18:25 53.20111 -8.76837 22587 ft 453 kts 230°
2026-04-30 18:25 53.18358 -8.81179 21810 ft 447 kts 230°
2026-04-30 18:26 53.14922 -8.89664 20299 ft 435 kts 230°
2026-04-30 18:26 53.13232 -8.93821 19574 ft 430 kts 230°
2026-04-30 18:26 53.11564 -8.97917 18857 ft 426 kts 231°
2026-04-30 18:27 53.08267 -9.05991 17278 ft 417 kts 231°
2026-04-30 18:27 53.06666 -9.09903 16557 ft 412 kts 231°
2026-04-30 18:28 53.03989 -9.16436 15366 ft 405 kts 230°
2026-04-30 18:28 53.02412 -9.20271 14685 ft 401 kts 231°
2026-04-30 18:28 52.99291 -9.27846 13201 ft 395 kts 231°
2026-04-30 18:29 52.97742 -9.31601 12489 ft 391 kts 231°
2026-04-30 18:29 52.93264 -9.42430 11269 ft 359 kts 232°
2026-04-30 18:30 52.90562 -9.48947 10769 ft 328 kts 231°
2026-04-30 18:30 52.88098 -9.54863 10383 ft 302 kts 231°
2026-04-30 18:31 52.86924 -9.57678 10258 ft 292 kts 231°
2026-04-30 18:31 52.84697 -9.63009 10033 ft 272 kts 231°
2026-04-30 18:32 52.82333 -9.67703 9435 ft 260 kts 205°
2026-04-30 18:32 52.80642 -9.68496 9164 ft 253 kts 179°
2026-04-30 18:32 52.77404 -9.66468 8450 ft 257 kts 136°
2026-04-30 18:33 52.76235 -9.64243 8135 ft 256 kts 130°
2026-04-30 18:33 52.74040 -9.59634 7488 ft 255 kts 129°
2026-04-30 18:33 52.72951 -9.57342 7176 ft 253 kts 130°
2026-04-30 18:34 52.71860 -9.55057 6867 ft 253 kts 129°
2026-04-30 18:34 52.69670 -9.50495 6209 ft 254 kts 129°
2026-04-30 18:34 52.68568 -9.48211 5875 ft 254 kts 129°
2026-04-30 18:35 52.67469 -9.45935 5548 ft 254 kts 129°
2026-04-30 18:35 52.66370 -9.43664 5223 ft 254 kts 129°
2026-04-30 18:35 52.65265 -9.41385 4861 ft 255 kts 129°
2026-04-30 18:36 52.63052 -9.36824 4224 ft 254 kts 129°
2026-04-30 18:36 52.61950 -9.34558 3920 ft 253 kts 128°
2026-04-30 18:36 52.59812 -9.30166 3565 ft 236 kts 128°
2026-04-30 18:37 52.58799 -9.28089 3448 ft 229 kts 128°
2026-04-30 18:37 52.57822 -9.26086 3345 ft 220 kts 128°
2026-04-30 18:37 52.56901 -9.24138 3116 ft 217 kts 121°
2026-04-30 18:37 52.56565 -9.21840 3013 ft 205 kts 80°
2026-04-30 18:38 52.57234 -9.19908 3015 ft 191 kts 47°
2026-04-30 18:38 52.58101 -9.18386 2977 ft 175 kts 56°
2026-04-30 18:38 52.58826 -9.16805 3005 ft 174 kts 55°
2026-04-30 18:38 52.59570 -9.15182 3005 ft 179 kts 56°
2026-04-30 18:39 52.60321 -9.13568 2960 ft 176 kts 57°
2026-04-30 18:39 52.61051 -9.12006 2767 ft 170 kts 57°
2026-04-30 18:39 52.61763 -9.10487 2545 ft 166 kts 57°
2026-04-30 18:39 52.62455 -9.09008 2333 ft 161 kts 57°
2026-04-30 18:40 52.63134 -9.07556 2120 ft 160 kts 58°
2026-04-30 18:40 52.63811 -9.06111 1944 ft 157 kts 58°
2026-04-30 18:40 52.64488 -9.04665 1698 ft 156 kts 59°
2026-04-30 18:40 52.65143 -9.03267 1472 ft 155 kts 59°
2026-04-30 18:41 52.65794 -9.01878 1257 ft 154 kts 58°
2026-04-30 18:41 52.66438 -9.00504 1046 ft 152 kts 57°
2026-04-30 18:41 52.67081 -8.99139 820 ft 149 kts 55°
2026-04-30 18:41 52.67717 -8.97792 575 ft 145 kts 54°
2026-04-30 18:42 52.68309 -8.96492 393 ft 139 kts 54°
2026-04-30 18:42 52.69532 -8.93912 58 ft 143 kts 54°
2026-04-30 18:42 52.70076 -8.92750 34 ft 96 kts 52°
2026-04-30 18:45 52.69736 -8.91260 23 ft 24 kts 198°
2026-04-30 18:45 52.69584 -8.91345 23 ft 23 kts 199°
2026-04-30 18:45 52.69437 -8.91426 23 ft 22 kts 198°
2026-04-30 18:46 52.69294 -8.91504 21 ft 21 kts 199°
2026-04-30 18:46 52.69285 -8.91649 21 ft 16 kts 315°
2026-04-30 18:46 52.69372 -8.91747 21 ft 15 kts 343°
2026-04-30 18:46 52.69443 -8.91855 24 ft 14 kts 289°
2026-04-30 18:47 52.69463 -8.92012 21 ft 13 kts 259°
2026-04-30 18:47 52.69397 -8.92051 21 ft 7 kts 185°
2026-04-30 18:47 52.69368 -8.92055 21 ft 0 kts 185°